• In Deutschland
  • Länderverzeichnis
  • Für 7 Tage
  • Wassertemperatur
  • Satellitenkarten
  • Wetterkarte
  • Widgets
  • user-avatar
    Anmelden

    Stündliche Wetter Canberra

    Heute, 26 Juni, Montag

    Zeit Temperatur Niederschläge Wind Luftdruck Luftfeuchtigkeit
    00:00 +3°C° 0 mm 2 m/S 709 mmHg 93%
    01:00 +3°C° 0 mm 2 m/S 710 mmHg 92%
    02:00 +3°C° 0 mm 2 m/S 710 mmHg 93%
    03:00 +3°C° 0 mm 2 m/S 710 mmHg 94%
    04:00 +3°C° 0 mm 2 m/S 710 mmHg 95%
    05:00 +3°C° 0 mm 2 m/S 710 mmHg 95%
    06:00 +2°C° 0 mm 2 m/S 711 mmHg 95%
    07:00 +3°C° 0 mm 1 m/S 711 mmHg 96%
    08:00 +5°C° 0 mm 1 m/S 712 mmHg 87%
    09:00 +8°C° 0 mm 1 m/S 712 mmHg 77%
    10:00 +10°C° 0 mm 1 m/S 713 mmHg 65%
    11:00 +11°C° 0 mm 1 m/S 713 mmHg 60%
    12:00 +12°C° 0 mm 1 m/S 713 mmHg 54%
    13:00 +13°C° 0 mm 1 m/S 713 mmHg 48%
    14:00 +13°C° 0 mm 1 m/S 713 mmHg 53%
    15:00 +12°C° 0 mm 1 m/S 713 mmHg 57%
    16:00 +11°C° 0 mm 1 m/S 713 mmHg 61%
    17:00 +9°C° 0 mm 1 m/S 713 mmHg 72%
    18:00 +6°C° 0 mm 1 m/S 713 mmHg 83%
    19:00 +4°C° 0 mm 1 m/S 713 mmHg 93%
    20:00 +3°C° 0 mm 1 m/S 714 mmHg 93%
    21:00 +2°C° 0 mm 1 m/S 714 mmHg 94%
    22:00 +1°C° 0 mm 1 m/S 714 mmHg 94%
    23:00 +1°C° 0 mm 1 m/S 714 mmHg 95%

    Morgen, 27 Juni, Dienstag

    Zeit Temperatur Niederschläge Wind Luftdruck Luftfeuchtigkeit
    00:00 0°C° 0 mm 1 m/S 714 mmHg 95%
    01:00 0°C° 0 mm 1 m/S 714 mmHg 96%
    02:00 0°C° 0 mm 1 m/S 714 mmHg 96%
    03:00 0°C° 0 mm 1 m/S 714 mmHg 96%
    04:00 0°C° 0 mm 1 m/S 714 mmHg 97%
    05:00 0°C° 0 mm 1 m/S 714 mmHg 97%
    06:00 0°C° 0 mm 1 m/S 714 mmHg 97%
    07:00 0°C° 0 mm 1 m/S 714 mmHg 97%
    08:00 +3°C° 0 mm 1 m/S 715 mmHg 88%
    09:00 +6°C° 0 mm 1 m/S 715 mmHg 80%
    10:00 +9°C° 0 mm 1 m/S 716 mmHg 71%
    11:00 +10°C° 0 mm 1 m/S 715 mmHg 67%
    12:00 +11°C° 0 mm 1 m/S 715 mmHg 63%
    13:00 +11°C° 0 mm 1 m/S 714 mmHg 59%
    14:00 +11°C° 0 mm 1 m/S 714 mmHg 63%
    15:00 +11°C° 0 mm 1 m/S 714 mmHg 66%
    16:00 +10°C° 0 mm 1 m/S 714 mmHg 69%
    17:00 +9°C° 0 mm 1 m/S 713 mmHg 76%
    18:00 +6°C° 0 mm 0 m/S 713 mmHg 82%
    19:00 +4°C° 0 mm 0 m/S 713 mmHg 89%
    20:00 +4°C° 0 mm 0 m/S 714 mmHg 90%
    21:00 +5°C° 0 mm 1 m/S 714 mmHg 92%
    22:00 +5°C° 0 mm 1 m/S 714 mmHg 94%
    23:00 +4°C° 0 mm 1 m/S 714 mmHg 95%

    übermorgen, 28 Juni, Mittwoch

    Zeit Temperatur Niederschläge Wind Luftdruck Luftfeuchtigkeit
    00:00 +4°C° 0 mm 1 m/S 713 mmHg 96%
    01:00 +3°C° 0 mm 1 m/S 713 mmHg 98%
    02:00 +3°C° 0 mm 0 m/S 713 mmHg 98%
    03:00 +3°C° 0 mm 0 m/S 712 mmHg 98%
    04:00 +3°C° 0 mm 0 m/S 712 mmHg 97%
    05:00 +3°C° 0 mm 0 m/S 712 mmHg 97%
    06:00 +3°C° 0 mm 0 m/S 712 mmHg 97%
    07:00 +2°C° 0 mm 0 m/S 713 mmHg 97%
    08:00 +5°C° 0 mm 1 m/S 713 mmHg 92%
    09:00 +7°C° 0 mm 1 m/S 713 mmHg 86%
    10:00 +8°C° 0 mm 1 m/S 714 mmHg 81%
    11:00 +9°C° 0,1 mm 1 m/S 713 mmHg 76%
    12:00 +10°C° 0,1 mm 1 m/S 713 mmHg 71%
    13:00 +11°C° 0,1 mm 1 m/S 712 mmHg 66%
    14:00 +11°C° 0 mm 1 m/S 712 mmHg 65%
    15:00 +11°C° 0 mm 1 m/S 712 mmHg 64%
    16:00 +11°C° 0 mm 1 m/S 711 mmHg 63%
    17:00 +9°C° 0 mm 1 m/S 711 mmHg 73%
    18:00 +6°C° 0 mm 1 m/S 711 mmHg 83%
    19:00 +4°C° 0 mm 1 m/S 711 mmHg 93%
    20:00 +4°C° 0 mm 1 m/S 712 mmHg 93%
    21:00 +3°C° 0 mm 1 m/S 712 mmHg 94%
    22:00 +3°C° 0 mm 1 m/S 712 mmHg 95%
    23:00 +3°C° 0 mm 1 m/S 712 mmHg 94%

    29 Juni, Donnerstag

    Zeit Temperatur Niederschläge Wind Luftdruck Luftfeuchtigkeit
    00:00 +3°C° 0 mm 1 m/S 712 mmHg 94%
    01:00 +2°C° 0 mm 1 m/S 711 mmHg 94%
    02:00 +2°C° 0 mm 1 m/S 711 mmHg 94%
    03:00 +2°C° 0 mm 1 m/S 711 mmHg 94%
    04:00 +2°C° 0 mm 1 m/S 711 mmHg 94%
    05:00 +2°C° 0 mm 2 m/S 711 mmHg 94%
    06:00 +2°C° 0 mm 2 m/S 711 mmHg 94%
    07:00 +2°C° 0 mm 2 m/S 711 mmHg 94%
    08:00 +4°C° 0 mm 2 m/S 712 mmHg 85%
    09:00 +5°C° 0 mm 3 m/S 712 mmHg 76%
    10:00 +8°C° 0 mm 3 m/S 712 mmHg 66%
    11:00 +8°C° 0 mm 4 m/S 712 mmHg 65%
    12:00 +8°C° 0 mm 4 m/S 711 mmHg 63%
    13:00 +9°C° 0 mm 5 m/S 711 mmHg 61%
    14:00 +8°C° 0 mm 5 m/S 710 mmHg 63%
    15:00 +8°C° 0 mm 5 m/S 710 mmHg 64%
    16:00 +7°C° 0 mm 5 m/S 710 mmHg 65%
    17:00 +7°C° 0 mm 4 m/S 711 mmHg 69%
    18:00 +6°C° 0 mm 4 m/S 711 mmHg 73%
    19:00 +5°C° 0 mm 3 m/S 711 mmHg 76%
    20:00 +4°C° 0 mm 3 m/S 712 mmHg 78%
    21:00 +4°C° 0 mm 3 m/S 712 mmHg 79%
    22:00 +4°C° 0 mm 3 m/S 713 mmHg 80%
    23:00 +4°C° 0 mm 2 m/S 713 mmHg 84%

    30 Juni, Freitag

    Zeit Temperatur Niederschläge Wind Luftdruck Luftfeuchtigkeit
    00:00 +3°C° 0 mm 2 m/S 713 mmHg 88%
    01:00 +2°C° 0 mm 2 m/S 713 mmHg 92%
    02:00 +2°C° 0 mm 1 m/S 713 mmHg 94%
    03:00 +1°C° 0 mm 1 m/S 713 mmHg 95%
    04:00 0°C° 0 mm 1 m/S 713 mmHg 97%
    05:00 0°C° 0 mm 1 m/S 714 mmHg 96%
    06:00 0°C° 0 mm 1 m/S 714 mmHg 95%
    07:00 0°C° 0 mm 1 m/S 715 mmHg 94%
    08:00 +1°C° 0 mm 2 m/S 716 mmHg 81%
    09:00 +4°C° 0 mm 2 m/S 716 mmHg 68%
    10:00 +6°C° 0 mm 2 m/S 717 mmHg 56%
    11:00 +7°C° 0 mm 2 m/S 717 mmHg 51%
    12:00 +8°C° 0 mm 2 m/S 717 mmHg 46%
    13:00 +9°C° 0 mm 2 m/S 717 mmHg 41%
    14:00 +9°C° 0 mm 2 m/S 717 mmHg 43%
    15:00 +10°C° 0 mm 1 m/S 717 mmHg 46%
    16:00 +9°C° 0 mm 1 m/S 717 mmHg 49%
    17:00 +7°C° 0 mm 1 m/S 717 mmHg 59%
    18:00 +4°C° 0 mm 1 m/S 717 mmHg 70%
    19:00 +1°C° 0 mm 1 m/S 717 mmHg 80%
    20:00 +1°C° 0 mm 1 m/S 718 mmHg 82%
    21:00 +1°C° 0 mm 1 m/S 718 mmHg 83%
    22:00 +1°C° 0 mm 1 m/S 718 mmHg 85%
    23:00 0°C° 0 mm 1 m/S 718 mmHg 87%

    1 Juli, Samstag

    Zeit Temperatur Niederschläge Wind Luftdruck Luftfeuchtigkeit
    00:00 0°C° 0 mm 1 m/S 718 mmHg 89%
    01:00 0°C° 0 mm 1 m/S 718 mmHg 91%
    02:00 0°C° 0 mm 1 m/S 718 mmHg 91%
    03:00 0°C° 0 mm 1 m/S 718 mmHg 91%
    04:00 0°C° 0 mm 1 m/S 718 mmHg 91%
    05:00 0°C° 0 mm 1 m/S 718 mmHg 91%
    06:00 0°C° 0 mm 1 m/S 719 mmHg 90%
    07:00 0°C° 0 mm 1 m/S 719 mmHg 90%
    08:00 +3°C° 0 mm 1 m/S 719 mmHg 77%
    09:00 +6°C° 0 mm 1 m/S 720 mmHg 64%
    10:00 +9°C° 0 mm 1 m/S 720 mmHg 52%
    11:00 +10°C° 0 mm 1 m/S 720 mmHg 47%
    12:00 +11°C° 0 mm 0 m/S 719 mmHg 42%
    13:00 +12°C° 0 mm 0 m/S 718 mmHg 37%
    14:00 +12°C° 0 mm 1 m/S 718 mmHg 42%
    15:00 +11°C° 0 mm 1 m/S 718 mmHg 47%
    16:00 +11°C° 0 mm 1 m/S 718 mmHg 51%
    17:00 +7°C° 0 mm 1 m/S 717 mmHg 63%
    18:00 +4°C° 0 mm 1 m/S 717 mmHg 74%
    19:00 +1°C° 0 mm 1 m/S 717 mmHg 85%
    20:00 0°C° 0 mm 1 m/S 717 mmHg 87%
    21:00 0°C° 0 mm 1 m/S 717 mmHg 89%
    22:00 0°C° 0 mm 1 m/S 717 mmHg 91%
    23:00 -1°C° 0 mm 1 m/S 717 mmHg 92%
    Mehr zeigen